Weather History for KDEC - October, 2014

Change the Weather History Date:

Tuesday, October 14, 2014

  Actual Average Record
Temperature  
Mean Temperature 60 °F 55 °F  
Max Temperature 64 °F 67 °F 84 °F (1996)
Min Temperature 56 °F 43 °F 25 °F (2002)
Degree Days  
Heating Degree Days 5 11  
Month to date heating degree days 121 123  
Since 1 July heating degree days 210 196  
Cooling Degree Days 0 0  
Month to date cooling degree days 8 14  
Year to date cooling degree days 1005 1043  
Growing Degree Days 10 (Base 50)    
Moisture  
Dew Point 56 °F    
Average Humidity 86    
Maximum Humidity 93    
Minimum Humidity 78    
Precipitation  
Precipitation 0.06 in 0.09 in 0.84 in (2003)
Month to date precipitation 4.18 1.37  
Year to date precipitation 32.03 30.57  
Sea Level Pressure  
Sea Level Pressure 29.51 in    
Wind  
Wind Speed 9 mph (South)    
Max Wind Speed 20 mph    
Max Gust Speed 26 mph    
Visibility 8 miles    
Events Rain    
T = Trace of Precipitation, MM = Missing Value Source: NWS Daily Summary

Daily Weather History Graph

Daily Weather History Graph

Search for Another Location

Airport or City:

Trip Planner

Search our weather history database for the weather conditions in past years. The results will help you decide how hot, cold, wet, or windy it might be!

Date:

Astronomy

Oct. 14, 2014 Rise Set
Actual Time 7:04 AM CDT 6:17 PM CDT
Civil Twilight 6:37 AM CDT 6:44 PM CDT
Nautical Twilight 6:06 AM CDT 7:15 PM CDT
Astronomical Twilight 5:34 AM CDT 7:47 PM CDT
Moon 11:23 PM CDT (10/14) 1:05 PM CDT (10/14)
Length of Visible Light 12h 07m
Length of Day
11h 12m
Waning Gibbous, 61% of the Moon is Illuminated
Oct 14
Waning Gibbous
Oct 15
Last Quarter
Oct 23
New
Oct 30
First Quarter
Nov 6
Full

Hourly Weather History & Observations

Time (CDT) Temp. Dew Point Humidity Pressure Visibility Wind Dir Wind Speed Gust Speed Precip Events Conditions
12:54 AM 64.0 °F 60.1 °F 87% 29.52 in 10.0 mi South 12.7 mph - N/A   Overcast
1:54 AM 62.1 °F 57.9 °F 86% 29.50 in 10.0 mi South 16.1 mph - N/A   Clear
2:54 AM 61.0 °F 57.9 °F 90% 29.49 in 10.0 mi South 9.2 mph - N/A   Clear
3:54 AM 59.0 °F 57.0 °F 93% 29.47 in 10.0 mi SSE 9.2 mph - N/A   Clear
4:50 AM 60.8 °F 57.2 °F 88% 29.47 in 10.0 mi SSE 12.7 mph - N/A   Mostly Cloudy
4:54 AM 60.1 °F 57.0 °F 90% 29.46 in 10.0 mi SSE 13.8 mph - N/A   Mostly Cloudy
5:54 AM 60.1 °F 57.0 °F 90% 29.47 in 10.0 mi SSE 12.7 mph - N/A   Overcast
6:10 AM 60.1 °F 57.0 °F 90% 29.47 in 10.0 mi SSE 12.7 mph - N/A   Overcast
6:54 AM 60.1 °F 57.0 °F 90% 29.46 in 10.0 mi SSE 9.2 mph - 0.00 in   Overcast
7:46 AM 59.0 °F 57.0 °F 93% 29.47 in 6.0 mi SSE 10.4 mph - 0.00 in Rain Light Rain
7:54 AM 59.0 °F 57.0 °F 93% 29.45 in 10.0 mi SE 10.4 mph - 0.00 in   Mostly Cloudy
8:02 AM 59.0 °F 57.0 °F 93% 29.46 in 10.0 mi SE 9.2 mph - N/A   Mostly Cloudy
8:22 AM 60.1 °F 57.9 °F 93% 29.47 in 10.0 mi SE 10.4 mph - N/A   Overcast
8:28 AM 60.1 °F 57.9 °F 93% 29.47 in 10.0 mi SE 10.4 mph - N/A   Overcast
8:35 AM 60.1 °F 57.9 °F 93% 29.47 in 10.0 mi SE 11.5 mph - N/A   Overcast
8:54 AM 60.1 °F 57.9 °F 93% 29.46 in 7.0 mi SSE 10.4 mph - N/A   Overcast
9:08 AM 60.1 °F 57.9 °F 93% 29.46 in 2.5 mi SSE 9.2 mph - N/A   Overcast
9:15 AM 60.1 °F 57.9 °F 93% 29.46 in 2.0 mi SSE 10.4 mph - 0.00 in Rain Light Rain
9:20 AM 60.1 °F 57.9 °F 93% 29.46 in 3.0 mi SSE 11.5 mph - 0.01 in Rain Light Rain
9:40 AM 60.1 °F 57.9 °F 93% 29.47 in 2.5 mi SSE 10.4 mph - 0.01 in Rain Light Rain
9:50 AM 60.8 °F 57.2 °F 88% 29.46 in 4.0 mi SSE 10.4 mph - 0.01 in Rain Light Rain
9:54 AM 60.1 °F 57.9 °F 93% 29.45 in 7.0 mi SSE 12.7 mph - 0.01 in   Overcast
10:27 AM 59.0 °F 55.9 °F 90% 29.46 in 8.0 mi South 11.5 mph - 0.02 in   Overcast
10:32 AM 60.1 °F 57.0 °F 90% 29.46 in 7.0 mi South 11.5 mph - 0.02 in   Overcast
10:54 AM 60.1 °F 55.9 °F 86% 29.45 in 10.0 mi SSW 17.3 mph 21.9 mph 0.02 in   Overcast
11:54 AM 60.1 °F 54.0 °F 80% 29.47 in 10.0 mi South 15.0 mph 20.7 mph N/A   Overcast
12:20 PM 59.0 °F 53.1 °F 81% 29.47 in 10.0 mi SSW 12.7 mph - 0.00 in   Overcast
12:54 PM 60.1 °F 53.1 °F 78% 29.47 in 10.0 mi South 11.5 mph - 0.00 in   Overcast
1:54 PM 60.1 °F 54.0 °F 80% 29.47 in 10.0 mi South 10.4 mph - 0.00 in Rain Light Rain
2:24 PM 59.0 °F 54.0 °F 83% 29.49 in 10.0 mi South 13.8 mph - 0.00 in   Overcast
2:54 PM 59.0 °F 54.0 °F 83% 29.49 in 9.0 mi South 12.7 mph - 0.00 in   Overcast
3:11 PM 59.0 °F 53.1 °F 81% 29.50 in 10.0 mi South 10.4 mph - N/A   Overcast
3:29 PM 57.9 °F 55.0 °F 90% 29.51 in 10.0 mi South 6.9 mph - N/A   Overcast
3:46 PM 59.0 °F 55.0 °F 87% 29.51 in 10.0 mi South 8.1 mph - N/A   Overcast
3:54 PM 59.0 °F 54.0 °F 83% 29.51 in 10.0 mi South 8.1 mph - N/A   Overcast
4:52 PM 57.2 °F 53.6 °F 88% 29.53 in 10.0 mi South 9.2 mph - N/A   Overcast
4:54 PM 57.9 °F 54.0 °F 87% 29.53 in 10.0 mi South 10.4 mph - N/A   Overcast
5:18 PM 57.0 °F 55.0 °F 93% 29.54 in 2.5 mi SSW 10.4 mph - 0.00 in Rain Light Rain
5:22 PM 57.0 °F 55.0 °F 93% 29.54 in 3.0 mi SSW 9.2 mph - 0.00 in   Overcast
5:37 PM 57.0 °F 54.0 °F 89% 29.55 in 6.0 mi SSW 11.5 mph - 0.00 in   Overcast
5:41 PM 57.0 °F 54.0 °F 89% 29.55 in 2.5 mi SSW 11.5 mph - 0.00 in Rain Light Rain
5:54 PM 57.0 °F 54.0 °F 89% 29.55 in 5.0 mi SSW 5.8 mph - 0.01 in Rain Light Rain
6:02 PM 57.0 °F 55.0 °F 93% 29.55 in 6.0 mi SSW 8.1 mph - 0.01 in Rain Light Rain
6:29 PM 57.0 °F 55.0 °F 93% 29.56 in 10.0 mi South 4.6 mph - 0.01 in   Overcast
6:54 PM 57.0 °F 54.0 °F 89% 29.56 in 10.0 mi South 5.8 mph - 0.01 in   Overcast
7:03 PM 57.0 °F 54.0 °F 89% 29.57 in 10.0 mi South 5.8 mph - N/A   Overcast
7:40 PM 57.0 °F 55.0 °F 93% 29.59 in 10.0 mi South 3.5 mph - N/A   Overcast
7:54 PM 57.0 °F 55.0 °F 93% 29.59 in 10.0 mi South 4.6 mph - N/A   Overcast
8:54 PM 57.0 °F 55.0 °F 93% 29.60 in 9.0 mi SSE 3.5 mph - N/A   Overcast
9:54 PM 57.0 °F 55.0 °F 93% 29.61 in 10.0 mi Calm Calm - N/A   Overcast
10:54 PM 57.0 °F 55.0 °F 93% 29.62 in 10.0 mi NW 3.5 mph - N/A   Overcast
11:11 PM 57.0 °F 55.0 °F 93% 29.63 in 10.0 mi Calm Calm - N/A   Overcast
11:25 PM 57.0 °F 55.0 °F 93% 29.63 in 10.0 mi Calm Calm - N/A   Overcast
11:32 PM 57.0 °F 55.0 °F 93% 29.63 in 10.0 mi Calm Calm - N/A   Overcast
11:54 PM 57.0 °F 55.0 °F 93% 29.62 in 10.0 mi WSW 3.5 mph - N/A   Overcast